カタログに戻る

ATLAS V CENTAUR R/B

運用中MEO
NORAD 41329·ROCKET BODY·🇺🇸 United States

打ち上げ Feb 5, 2016 から Cape Canaveral Space Force Station

Loading…

次のパス (今後24時間)

TLE

経年Source: Space-Track

元期: Aug 30, 2026, 22:24 UTC

1 41329U 16007B   26242.93381777  .00000029  00000-0  00000-0 0  9995
2 41329  55.7473 101.3392 0108150 358.8245   1.2496  1.91799280 74044

AllMySatでATLAS V CENTAUR R/Bをリアルタイム追跡

Download on the App Store